Miscellaneous Local Product
Issued by NWS North Platte, NE

Home | Current Version | Previous Version | Text Only | Print | Product List | Glossary On
Versions: 1 2 3 4 5 6 7 8 9 10 11 12 13 14 15 16 17 18 19 20 21 22 23 24 25 26 27 28 29 30 31 32 33 34 35 36 37 38 39 40 41 42 43 44 45 46 47 48 49 50
243
AXUS43 KLBF 281810
MISLBF


WESTERN AND NORTH CENTRAL NEBRASKA HOURLY WEATHER ROUNDUP
NATIONAL WEATHER SERVICE NORTH PLATTE NE
100 PM CDT TUE MAR 28 2017

NOTE: "FAIR" INDICATES FEW OR NO CLOUDS BELOW 12,000 FEET WITH NO
SIGNIFICANT WEATHER AND/OR OBSTRUCTIONS TO VISIBILITY.

NOTE: STATIONS NOT REPORTING VARIABLES SUCH AS SKY/WEATHER OR
PRESSURE ARE PROVIDED BY RAWS AND APRS NETWORKS AND ARE NOT UNDER
NATIONAL WEATHER SERVICE QUALITY CONTROL.

...OBSERVATIONS IN AND NEAR THE EASTERN PANHANDLE OF NEBRASKA...

CITY           SKY/WX    TMP DP  RH WIND       PRES   REMARKS
PINE RIDGE     LGT RAIN  46  44  93 NE6       30.02F
CHADRON        LGT RAIN  44  41  89 NE12      30.01S
ALLIANCE       LGT RAIN  44  42  93 E17       29.95F
SIDNEY         LGT RAIN  43  42  97 E17       29.92S FOG
CRESCENT LAKE    N/A     43  43 100 E13G22      N/A
$$

...OBSERVATIONS IN NORTHERN NEBRASKA AND FAR SOUTHERN SOUTH DAKOTA...

CITY           SKY/WX    TMP DP  RH WIND       PRES   REMARKS
WINNER         LGT RAIN  50  44  80 E12       30.09F
VALENTINE      LGT RAIN  47  43  86 E6        30.06S
THEDFORD       DRIZZLE   46  43  92 E6        30.05F
AINSWORTH      CLOUDY    48  44  86 E7        30.07R
O`NEILL        CLOUDY    49  43  78 E9        30.10S
ORD            CLOUDY    51  39  63 E12       30.05F
BROKEN BOW     CLOUDY    48  43  82 E12       30.04F
VALENTINE NWR    N/A     44  42  94 SE6         N/A
HALSEY           N/A     44  42  93 SE5G12      N/A
BUTTE            N/A     49  42  78 NE9         N/A
CHAMBERS         N/A     54  42  65 E3          N/A
EWING            N/A     52  39  62 E6G15       N/A
$$

...OBSERVATIONS IN SOUTHWEST NEBRASKA AND FAR NORTHEAST COLORADO...

CITY           SKY/WX    TMP DP  RH WIND       PRES   REMARKS
WRAY           CLOUDY   N/A N/A N/A E10       29.91  HAZE
HOLYOKE        LGT RAIN  46  43  87 E15       29.92S
IMPERIAL       LGT RAIN  46  43  89 E13       29.94F
OGALLALA       LGT RAIN  46  44  95 E14       29.97S
NORTH PLATTE   LGT RAIN  45  44  97 E13       30.01F FOG
MCCOOK         LGT RAIN  46  45  96 E14       29.97S FOG
LEXINGTON      CLOUDY    50  43  75 E12       30.01F
STAPLETON        N/A     43  42  97 E3          N/A
GOTHENBURG       N/A     45  42  91 E7          N/A
CALLAWAY         N/A     43  42  98 E8          N/A
$$

...OBSERVATIONS IN CENTRAL LINCOLN COUNTY AREA...

CITY           SKY/WX    TMP DP  RH WIND       PRES   REMARKS
N.P. AIRPORT   LGT RAIN  45  44  97 E13       30.01F FOG
N.P. DOWNTOWN    N/A     44  43  96 E6          N/A
N.P. SOUTHEAST   N/A     44  43  95 E5          N/A
N.P. HILLCREST   N/A     44  43  97 E12         N/A
$$

...SOME OBSERVATIONS FROM AROUND THE REGION...

CITY           SKY/WX    TMP DP  RH WIND       PRES   REMARKS
DENVER         CLOUDY    45  40  82 NW17      29.85F
LIMON          CLOUDY    43  42  97 S5        29.87S
ASPEN          CLOUDY    39  33  79 N5        29.88F
LARAMIE        LGT RAIN  36  34  92 N17       29.93R WCI  26
CASPER         CLOUDY    39  36  89 N23G29    30.04R WCI  28
CHEYENNE       LGT RAIN  40  38  93 N15       29.91R FOG     WCI  32
SCOTTSBLUFF    LGT RAIN  46  43  89 E22       29.93S
GRAND ISLAND   CLOUDY    50  41  71 E15       30.05F
OMAHA          CLOUDY    49  41  74 E9        30.12F
SIOUX FALLS    CLOUDY    56  37  49 CALM      30.13F
PIERRE         CLOUDY    53  42  66 S13       30.09S
RAPID CITY     LGT RAIN  42  39  89 NE5       30.04R
BISMARCK       PTSUNNY   50  38  63 E5        30.14S
KANSAS CITY    CLOUDY    51  49  92 E8        30.07F
HILL CITY      CLOUDY    48  47  96 E14       29.97S FOG
WICHITA        CLOUDY    53  46  77 E15       29.96F
DODGE CITY     CLOUDY    47  45  93 E15G24    29.92R FOG
OKLAHOMA CITY  PTSUNNY   64  49  57 E14       29.87F
DALLAS         CLOUDY    75  65  70 SE15      29.82F
AMARILLO       FOG       50  50 100 SE26G35   29.76S VSB 1/4
$$




USA.gov is the U.S. government's official web portal to all federal, state and local government web resources and services.